User: anonymous   Login
Location: Unspecified
(0.0000°N, 0.0000°E)
Time: 18:11:19
(UTC+00:00)
Language:

STARLINK-32387 - Orbit

View from above orbital plane
View from above orbital plane
View from above satellite
View from above satellite

Ground track
Ground track

The orbit is defined by the following mean orbital elements,

1 61704U          26145.32972345 +.00000000 +00000-0 +17425-3 0 00006
2 61704  53.1590 158.0808 0001224  85.0232 275.0910 15.34404070    04
Epoch (UTC): 25 May 2026 07:54:48
Eccentricity: 0.0001224
inclination: 53.1590°
perigee height: 462 km
apogee height: 464 km
right ascension of ascending node: 158.0808°
argument of perigee: 85.0232°
revolutions per day: 15.34404070
mean anomaly at epoch: 275.0910°

The dashed part of the orbit path shows where the satellite is in the earth's shadow,  

DLR